ITY1772 LICJ-LIML

Flight info

Callsign ITY1772
Flight time 1h 22m
Altitude 36000
Route GIANO DCT KARDU DCT EMBOS DCT GIPIX DCT KALMO
Aircraft A319/M-SDE3FGHIRWY/LB1

Departure

Time 2026-05-01 09:00
Airport Falcone–Borsellino Airport (LICJ)

Arrival

Time 2026-05-01 10:22
Airport Milano Linate Airport (LIML)
Time Latitude Longitude Altitude Speed Heading
2026-05-01 08:16 38.18389 13.10409 53 ft 0 kts 67°
2026-05-01 08:53 38.18389 13.10411 53 ft 1 kts 67°
2026-05-01 08:53 38.18395 13.10427 52 ft 3 kts 67°
2026-05-01 08:54 38.18407 13.10463 53 ft 6 kts 67°
2026-05-01 08:54 38.18384 13.10495 53 ft 6 kts 176°
2026-05-01 08:54 38.18336 13.10473 51 ft 9 kts 211°
2026-05-01 08:54 38.18301 13.10389 50 ft 12 kts 247°
2026-05-01 08:55 38.18244 13.10369 53 ft 10 kts 154°
2026-05-01 08:55 38.18199 13.10321 50 ft 10 kts 246°
2026-05-01 08:55 38.18171 13.10237 51 ft 11 kts 247°
2026-05-01 08:55 38.18141 13.10148 52 ft 11 kts 246°
2026-05-01 08:56 38.18109 13.10054 52 ft 12 kts 246°
2026-05-01 08:56 38.18076 13.09955 53 ft 13 kts 247°
2026-05-01 08:56 38.18040 13.09849 51 ft 14 kts 247°
2026-05-01 08:56 38.17996 13.09717 53 ft 17 kts 247°
2026-05-01 08:57 38.17948 13.09573 53 ft 18 kts 246°
2026-05-01 08:57 38.17899 13.09428 53 ft 18 kts 246°
2026-05-01 08:57 38.17849 13.09280 53 ft 18 kts 247°
2026-05-01 08:57 38.17799 13.09129 50 ft 19 kts 246°
2026-05-01 08:58 38.17749 13.08981 52 ft 17 kts 245°
2026-05-01 08:58 38.17671 13.08886 50 ft 15 kts 217°
2026-05-01 08:58 38.17595 13.08813 51 ft 13 kts 217°
2026-05-01 08:58 38.17521 13.08743 52 ft 13 kts 215°
2026-05-01 08:59 38.17462 13.08748 53 ft 7 kts 80°
2026-05-01 08:59 38.17488 13.08818 53 ft 13 kts 66°
2026-05-01 08:59 38.17609 13.09179 53 ft 82 kts 66°
2026-05-01 08:59 38.17925 13.10115 52 ft 145 kts 67°
2026-05-01 09:00 38.18338 13.11376 596 ft 152 kts 66°
2026-05-01 09:00 38.18738 13.12629 1314 ft 154 kts 66°
2026-05-01 09:00 38.19170 13.13895 1923 ft 163 kts 64°
2026-05-01 09:00 38.19671 13.15280 2368 ft 182 kts 64°
2026-05-01 09:01 38.20230 13.16859 2731 ft 209 kts 65°
2026-05-01 09:01 38.20851 13.18634 3266 ft 230 kts 62°
2026-05-01 09:01 38.21987 13.20148 3818 ft 249 kts 28°
2026-05-01 09:01 38.23604 13.20990 4831 ft 252 kts 22°
2026-05-01 09:02 38.25249 13.21838 5809 ft 257 kts 22°
2026-05-01 09:02 38.26929 13.22731 6709 ft 265 kts 21°
2026-05-01 09:02 38.28630 13.23650 7667 ft 268 kts 21°
2026-05-01 09:02 38.30358 13.24598 8571 ft 273 kts 21°
2026-05-01 09:03 38.32112 13.25557 9504 ft 277 kts 19°
2026-05-01 09:03 38.33902 13.26511 10399 ft 281 kts 18°
2026-05-01 09:03 38.35826 13.27176 10814 ft 296 kts 359°
2026-05-01 09:03 38.37883 13.26736 11249 ft 308 kts 335°
2026-05-01 09:04 38.39624 13.25149 11989 ft 312 kts 312°
2026-05-01 09:04 38.40981 13.22974 12838 ft 315 kts 308°
2026-05-01 09:04 38.42313 13.20742 13699 ft 318 kts 307°
2026-05-01 09:04 38.43645 13.18480 14449 ft 320 kts 307°
2026-05-01 09:05 38.44988 13.16195 15180 ft 323 kts 307°
2026-05-01 09:05 38.46344 13.13896 15905 ft 326 kts 307°
2026-05-01 09:05 38.47717 13.11577 16592 ft 329 kts 307°
2026-05-01 09:05 38.49105 13.09237 17301 ft 332 kts 307°
2026-05-01 09:06 38.50506 13.06876 18011 ft 335 kts 307°
2026-05-01 09:06 38.51917 13.04489 18688 ft 338 kts 307°
2026-05-01 09:06 38.53340 13.02080 19312 ft 341 kts 307°
2026-05-01 09:06 38.54771 12.99657 19962 ft 343 kts 306°
2026-05-01 09:07 38.56212 12.97215 20618 ft 345 kts 306°
2026-05-01 09:07 38.57659 12.94759 21248 ft 347 kts 306°
2026-05-01 09:07 38.59114 12.92288 21882 ft 349 kts 306°
2026-05-01 09:07 38.60581 12.89798 22504 ft 351 kts 306°
2026-05-01 09:08 38.62056 12.87295 23116 ft 354 kts 306°
2026-05-01 09:08 38.63520 12.84808 23700 ft 356 kts 306°
2026-05-01 09:08 38.65032 12.82237 24256 ft 357 kts 306°
2026-05-01 09:08 38.66523 12.79701 24793 ft 357 kts 306°
2026-05-01 09:09 38.68016 12.77159 25288 ft 358 kts 306°
2026-05-01 09:09 38.69492 12.74638 25709 ft 360 kts 306°
2026-05-01 09:09 38.70998 12.72064 26166 ft 362 kts 306°
2026-05-01 09:09 38.72510 12.69480 26616 ft 364 kts 305°
2026-05-01 09:10 38.74030 12.66882 27073 ft 365 kts 305°
2026-05-01 09:10 38.75558 12.64275 27527 ft 367 kts 305°
2026-05-01 09:10 38.77089 12.61654 27981 ft 368 kts 304°
2026-05-01 09:10 38.78622 12.59020 28423 ft 370 kts 304°
2026-05-01 09:11 38.80161 12.56369 28857 ft 372 kts 304°
2026-05-01 09:11 38.81708 12.53705 29280 ft 373 kts 304°
2026-05-01 09:11 38.83262 12.51029 29696 ft 375 kts 304°
2026-05-01 09:11 38.84835 12.48350 30098 ft 377 kts 306°
2026-05-01 09:12 38.86698 12.45945 30445 ft 384 kts 316°
2026-05-01 09:12 38.88954 12.44036 30753 ft 394 kts 326°
2026-05-01 09:12 38.91531 12.42702 31090 ft 404 kts 334°
2026-05-01 09:12 38.94195 12.41539 31393 ft 405 kts 334°
2026-05-01 09:13 38.96869 12.40364 31672 ft 407 kts 334°
2026-05-01 09:13 38.99553 12.39177 32007 ft 408 kts 334°
2026-05-01 09:13 39.02228 12.37990 32438 ft 406 kts 334°
2026-05-01 09:13 39.04898 12.36807 32864 ft 405 kts 334°
2026-05-01 09:14 39.07560 12.35625 33284 ft 404 kts 334°
2026-05-01 09:14 39.10213 12.34442 33695 ft 403 kts 334°
2026-05-01 09:14 39.12862 12.33260 34123 ft 402 kts 334°
2026-05-01 09:14 39.15505 12.32081 34516 ft 402 kts 334°
2026-05-01 09:15 39.17253 12.31303 34747 ft 401 kts 334°
2026-05-01 09:15 39.19891 12.30132 35082 ft 401 kts 335°
2026-05-01 09:15 39.22529 12.28958 35387 ft 401 kts 335°
2026-05-01 09:15 39.25170 12.27783 35696 ft 401 kts 335°
2026-05-01 09:16 39.27808 12.26603 35985 ft 401 kts 335°
2026-05-01 09:16 39.30451 12.25418 36170 ft 402 kts 335°
2026-05-01 09:17 39.38319 12.21894 36221 ft 397 kts 335°
2026-05-01 09:17 39.46113 12.18401 36213 ft 394 kts 335°
2026-05-01 09:18 39.53876 12.14911 36220 ft 394 kts 335°
2026-05-01 09:19 39.61628 12.11407 36228 ft 393 kts 335°
2026-05-01 09:20 39.69365 12.07908 36241 ft 392 kts 335°
2026-05-01 09:21 39.79643 12.03251 36224 ft 391 kts 335°
2026-05-01 09:21 39.87341 11.99741 36253 ft 391 kts 336°
2026-05-01 09:22 39.97591 11.95071 36251 ft 389 kts 336°
2026-05-01 09:23 40.05256 11.91572 36252 ft 389 kts 336°
2026-05-01 09:24 40.12915 11.88059 36247 ft 389 kts 335°
2026-05-01 09:25 40.23119 11.83376 36253 ft 389 kts 336°
2026-05-01 09:26 40.30730 11.79872 36271 ft 388 kts 336°
2026-05-01 09:26 40.38365 11.76342 36270 ft 388 kts 336°
2026-05-01 09:27 40.45987 11.72808 36258 ft 387 kts 336°
2026-05-01 09:28 40.51072 11.70448 36268 ft 387 kts 336°
2026-05-01 09:28 40.56155 11.68088 36296 ft 387 kts 336°
2026-05-01 09:29 40.63768 11.64537 36262 ft 387 kts 336°
2026-05-01 09:30 40.71369 11.61000 36266 ft 386 kts 336°
2026-05-01 09:30 40.78962 11.57451 36300 ft 386 kts 337°
2026-05-01 09:31 40.84023 11.55076 36288 ft 386 kts 337°
2026-05-01 09:32 40.91620 11.51501 36279 ft 386 kts 337°
2026-05-01 09:32 40.99214 11.47920 36283 ft 386 kts 338°
2026-05-01 09:33 41.04281 11.45539 36281 ft 386 kts 338°
2026-05-01 09:34 41.11883 11.41951 36277 ft 387 kts 337°
2026-05-01 09:34 41.19482 11.38346 36277 ft 387 kts 337°
2026-05-01 09:35 41.27084 11.34732 36281 ft 387 kts 338°
2026-05-01 09:36 41.32157 11.32317 36271 ft 388 kts 338°
2026-05-01 09:36 41.37237 11.29895 36244 ft 388 kts 338°
2026-05-01 09:37 41.42309 11.27472 36251 ft 387 kts 338°
2026-05-01 09:37 41.49908 11.23841 36267 ft 386 kts 338°
2026-05-01 09:38 41.57484 11.20202 36270 ft 386 kts 338°
2026-05-01 09:39 41.65071 11.16543 36273 ft 387 kts 338°
2026-05-01 09:39 41.70134 11.14096 36276 ft 388 kts 339°
2026-05-01 09:40 41.77746 11.10432 36272 ft 388 kts 339°
2026-05-01 09:41 41.82818 11.07974 36276 ft 388 kts 339°
2026-05-01 09:41 41.90432 11.04275 36286 ft 388 kts 339°
2026-05-01 09:42 41.95513 11.01806 36282 ft 388 kts 339°
2026-05-01 09:43 42.05678 10.96855 36287 ft 388 kts 339°
2026-05-01 09:43 42.10753 10.94377 36290 ft 388 kts 340°
2026-05-01 09:44 42.18377 10.90646 36278 ft 389 kts 340°
2026-05-01 09:45 42.23467 10.88153 36280 ft 389 kts 340°
2026-05-01 09:45 42.31103 10.84391 36287 ft 390 kts 340°
2026-05-01 09:46 42.36201 10.81874 36291 ft 390 kts 340°
2026-05-01 09:46 42.41303 10.79355 36295 ft 390 kts 340°
2026-05-01 09:47 42.46406 10.76834 36300 ft 390 kts 340°
2026-05-01 09:47 42.51507 10.74300 36307 ft 390 kts 340°
2026-05-01 09:48 42.56576 10.71777 36307 ft 391 kts 340°
2026-05-01 09:48 42.61717 10.69229 36304 ft 391 kts 340°
2026-05-01 09:49 42.66824 10.66695 36299 ft 391 kts 340°
2026-05-01 09:49 42.71931 10.64145 36299 ft 391 kts 340°
2026-05-01 09:50 42.76997 10.61607 36310 ft 391 kts 341°
2026-05-01 09:50 42.82097 10.59061 36310 ft 390 kts 341°
2026-05-01 09:51 42.87189 10.56503 36276 ft 390 kts 341°
2026-05-01 09:51 42.92278 10.53944 36289 ft 390 kts 341°
2026-05-01 09:52 42.97367 10.51400 36295 ft 389 kts 343°
2026-05-01 09:52 43.02651 10.49853 36298 ft 388 kts 349°
2026-05-01 09:53 43.07963 10.48461 36297 ft 389 kts 349°
2026-05-01 09:53 43.13272 10.47053 36298 ft 389 kts 349°
2026-05-01 09:54 43.18586 10.45658 36296 ft 389 kts 350°
2026-05-01 09:54 43.23902 10.44278 36299 ft 389 kts 350°
2026-05-01 09:55 43.29225 10.42880 36303 ft 389 kts 350°
2026-05-01 09:55 43.34546 10.41465 36304 ft 390 kts 349°
2026-05-01 09:56 43.39871 10.40040 36305 ft 390 kts 350°
2026-05-01 09:56 43.45196 10.38619 36306 ft 390 kts 350°
2026-05-01 09:57 43.50528 10.37206 36307 ft 390 kts 350°
2026-05-01 09:57 43.55860 10.35782 36309 ft 390 kts 350°
2026-05-01 09:58 43.61200 10.34354 36304 ft 391 kts 350°
2026-05-01 09:58 43.65645 10.33158 36306 ft 392 kts 350°
2026-05-01 09:59 43.71000 10.31721 36293 ft 393 kts 350°
2026-05-01 09:59 43.73689 10.30997 36031 ft 394 kts 350°
2026-05-01 09:59 43.76379 10.30272 35777 ft 394 kts 351°
2026-05-01 10:00 43.79078 10.29545 35516 ft 396 kts 351°
2026-05-01 10:00 43.81794 10.28797 34752 ft 400 kts 350°
2026-05-01 10:00 43.84462 10.27635 34104 ft 404 kts 342°
2026-05-01 10:00 43.87002 10.25982 33512 ft 402 kts 339°
2026-05-01 10:01 43.89491 10.24276 32961 ft 397 kts 339°
2026-05-01 10:01 43.91959 10.22592 32405 ft 393 kts 339°
2026-05-01 10:01 43.94400 10.20927 31864 ft 389 kts 340°
2026-05-01 10:01 43.96820 10.19277 31305 ft 385 kts 339°
2026-05-01 10:02 43.99213 10.17643 30796 ft 382 kts 339°
2026-05-01 10:02 44.01589 10.16021 30249 ft 379 kts 339°
2026-05-01 10:02 44.03920 10.14333 29706 ft 378 kts 334°
2026-05-01 10:02 44.06032 10.12140 29183 ft 381 kts 324°
2026-05-01 10:03 44.07845 10.09435 28669 ft 385 kts 315°
2026-05-01 10:03 44.09379 10.06361 28153 ft 386 kts 311°
2026-05-01 10:03 44.10887 10.03296 27549 ft 383 kts 314°
2026-05-01 10:03 44.12716 10.00636 26803 ft 378 kts 324°
2026-05-01 10:04 44.14588 9.98158 26707 ft 365 kts 323°
2026-05-01 10:04 44.16375 9.95737 26613 ft 352 kts 323°
2026-05-01 10:04 44.18144 9.93332 26501 ft 357 kts 323°
2026-05-01 10:04 44.19959 9.90908 26196 ft 370 kts 325°
2026-05-01 10:05 44.22120 9.88933 25244 ft 375 kts 340°
2026-05-01 10:05 44.24490 9.87359 24574 ft 376 kts 340°
2026-05-01 10:05 44.26842 9.85821 24132 ft 372 kts 341°
2026-05-01 10:05 44.29177 9.84298 23654 ft 369 kts 340°
2026-05-01 10:06 44.31487 9.82785 23170 ft 364 kts 340°
2026-05-01 10:06 44.33760 9.81292 22746 ft 358 kts 340°
2026-05-01 10:06 44.36000 9.79820 22311 ft 354 kts 340°
2026-05-01 10:06 44.38217 9.78362 21866 ft 351 kts 340°
2026-05-01 10:07 44.40414 9.76909 21426 ft 348 kts 340°
2026-05-01 10:07 44.42590 9.75464 20981 ft 345 kts 340°
2026-05-01 10:07 44.44748 9.74030 20540 ft 341 kts 340°
2026-05-01 10:07 44.46883 9.72609 20099 ft 339 kts 340°
2026-05-01 10:08 44.51118 9.69791 19220 ft 335 kts 341°
2026-05-01 10:08 44.53222 9.68397 18793 ft 334 kts 341°
2026-05-01 10:08 44.55320 9.67007 18332 ft 333 kts 341°
2026-05-01 10:09 44.57397 9.65626 17899 ft 331 kts 340°
2026-05-01 10:09 44.59468 9.64245 17465 ft 328 kts 340°
2026-05-01 10:09 44.61548 9.62941 16949 ft 327 kts 342°
2026-05-01 10:09 44.63658 9.61774 16521 ft 325 kts 344°
2026-05-01 10:10 44.65771 9.60680 16112 ft 323 kts 345°
2026-05-01 10:10 44.67877 9.59607 15709 ft 321 kts 345°
2026-05-01 10:10 44.72039 9.57451 14899 ft 317 kts 344°
2026-05-01 10:11 44.74100 9.56368 14496 ft 316 kts 343°
2026-05-01 10:11 44.76155 9.55277 13993 ft 317 kts 343°
2026-05-01 10:11 44.78247 9.54159 13258 ft 324 kts 342°
2026-05-01 10:11 44.80343 9.53030 12814 ft 321 kts 342°
2026-05-01 10:12 44.82415 9.51914 12388 ft 317 kts 342°
2026-05-01 10:12 44.84469 9.50805 11968 ft 315 kts 342°
2026-05-01 10:12 44.88517 9.48621 11131 ft 310 kts 342°
2026-05-01 10:13 44.90526 9.47539 10701 ft 309 kts 342°
2026-05-01 10:13 44.92527 9.46460 10279 ft 306 kts 341°
2026-05-01 10:13 44.94482 9.45402 10107 ft 295 kts 342°
2026-05-01 10:14 44.98211 9.43386 9712 ft 283 kts 342°
2026-05-01 10:14 45.00061 9.42391 9212 ft 285 kts 341°
2026-05-01 10:14 45.01923 9.41387 8772 ft 283 kts 342°
2026-05-01 10:14 45.03751 9.40399 8269 ft 281 kts 341°
2026-05-01 10:15 45.05569 9.39418 7758 ft 279 kts 341°
2026-05-01 10:15 45.07371 9.38445 7184 ft 276 kts 342°
2026-05-01 10:15 45.09152 9.37480 6633 ft 273 kts 342°
2026-05-01 10:15 45.10917 9.36523 6004 ft 270 kts 341°
2026-05-01 10:16 45.12665 9.35574 5411 ft 269 kts 341°
2026-05-01 10:16 45.14407 9.34628 4860 ft 268 kts 341°
2026-05-01 10:16 45.17650 9.32860 4690 ft 232 kts 342°
2026-05-01 10:17 45.19103 9.32066 4642 ft 218 kts 342°
2026-05-01 10:17 45.21846 9.30576 4464 ft 205 kts 341°
2026-05-01 10:17 45.23202 9.30068 4303 ft 200 kts 354°
2026-05-01 10:18 45.25983 9.29696 3812 ft 204 kts 359°
2026-05-01 10:18 45.27383 9.29546 3564 ft 205 kts 358°
2026-05-01 10:18 45.28820 9.29391 3262 ft 203 kts 358°
2026-05-01 10:19 45.30209 9.29242 2991 ft 202 kts 359°
2026-05-01 10:19 45.31606 9.29092 2715 ft 200 kts 359°
2026-05-01 10:19 45.32981 9.28943 2448 ft 196 kts 360°
2026-05-01 10:20 45.35555 9.28665 1942 ft 170 kts
2026-05-01 10:20 45.36654 9.28544 1701 ft 150 kts
2026-05-01 10:20 45.37645 9.28435 1489 ft 138 kts
2026-05-01 10:20 45.38582 9.28333 1303 ft 133 kts 360°
2026-05-01 10:21 45.39504 9.28233 1122 ft 135 kts
2026-05-01 10:21 45.41372 9.28034 775 ft 135 kts
2026-05-01 10:21 45.42309 9.27938 628 ft 135 kts
2026-05-01 10:22 45.44147 9.27747 358 ft 116 kts 355°
2026-05-01 10:22 45.45125 9.27640 358 ft 40 kts 355°
2026-05-01 10:23 45.45353 9.27691 362 ft 25 kts 26°
2026-05-01 10:23 45.45511 9.27815 366 ft 10 kts
2026-05-01 10:23 45.45587 9.27816 360 ft 11 kts
2026-05-01 10:24 45.45761 9.27818 360 ft 13 kts
2026-05-01 10:24 45.45907 9.27860 362 ft 8 kts 82°
2026-05-01 10:25 45.45967 9.27904 360 ft 3 kts 360°
2026-05-01 10:25 45.45975 9.27903 360 ft 0 kts 360°